Regional Weather Roundup
Issued by NWS Charleston, SC

Current Version | Previous Version | Graphics & Text | Print | Product List | Glossary On
Versions: 1 2 3 4 5 6 7 8 9 10 11 12 13 14 15 16 17 18 19 20 21 22 23 24 25 26 27 28 29 30 31 32 33 34 35 36 37 38 39 40 41 42 43 44 45 46 47 48 49 50
847
ASUS42 KCHS 300928
RWRCHS

REGIONAL WEATHER ROUNDUP
NATIONAL WEATHER SERVICE CHARLESTON SC
500 AM EDT SAT JUL 30 2016

NOTE: "FAIR" INDICATES FEW OR NO CLOUDS BELOW 12,000 FEET WITH NO
SIGNIFICANT WEATHER AND/OR OBSTRUCTIONS TO VISIBILITY.

NOT ALL STATIONS ARE QUALITY CONTROLLED. USE DATA WITH CAUTION...
ESPECIALLY DEWPOINT OBSERVATIONS.

SCZ027-030-031-034>040-042>050-301000-
...SOUTHEAST SOUTH CAROLINA...

CITY           SKY/WX    TMP DP  RH WIND       PRES   REMARKS
N CHARLESTON   CLEAR     83  75  77 SW7       29.94R HX  90
WATERFRONT PRK   N/A     85  78  79 SW6       29.91F HX  97
MOUNT PLEASANT FAIR      84  77  79 SW5       29.94S HX  94
JOHNS ISLAND   FAIR      84  77  79 SW5       29.94S HX  94
PINOPOLIS        N/A     82  79  89 SW7       29.86S HX  93
MONCKS CORNER  FAIR      75  73  94 CALM      29.94R
SUMMERVILLE    NOT AVBL
BEAUFORT MCAS  CLEAR     81  73  76 SW8       29.95S
BEAUFORT ARPT  FAIR      82  72  69 W8        29.95S
HILTON HEAD IS CLEAR     82  73  74 W9        29.96S
WALTERBORO     SUNNY     79  79 100 CALM      29.96R
ALLENDALE      FAIR      75  72  88 CALM      29.94S

...SOUTHERN MIDLANDS AND PEE DEE...

CITY           SKY/WX    TMP DP  RH WIND       PRES   REMARKS
GEORGETOWN     FAIR      79  77  94 SW5       29.94F
KINGSTREE      FAIR      75  72  88 CALM      29.93S
ORANGEBURG     CLEAR     75  72  90 CALM      29.94R
BARNWELL       NOT AVBL
AIKEN          FAIR      73  70  88 CALM      29.99R
MANNING        FAIR      75  73  94 CALM      29.94R
COLUMBIA       CLEAR     78  71  79 S3        29.93R
SUMTER         CLEAR     77  73  88 CALM      29.92R FOG
FLORENCE       CLEAR     75  73  93 CALM      29.93R
MYRTLE BEACH   CLEAR     82  72  69 SW7       29.95S
N MYRTLE BEACH CLEAR     83  78  85 SW9       29.93R HX  93

$$

GAZ063-065-086>088-099>101-113>116-118-119-134>141-150-301000-
...SOUTHEAST GEORGIA...

CITY           SKY/WX    TMP DP  RH WIND       PRES   REMARKS
SAVANNAH ARPT  CLEAR     80  71  74 SW6       29.97R
HUNTER AAF     CLEAR     80  74  84 SW7       29.95R
FORT STEWART   CLEAR     79  70  73 SW3       29.95S
STATESBORO     CLEAR     78  73  85 CALM      29.96S
SYLVANIA       NOT AVBL
CLAXTON        FAIR      76  73  92 CALM      29.97S

...CSRA...CENTRAL AND FAR SOUTHEAST GEORGIA...

CITY           SKY/WX    TMP DP  RH WIND       PRES   REMARKS
THOMSON        NOT AVBL
AUGUSTA-BUSH   CLEAR     75  70  84 CALM      29.94R
AUGUSTA-DANIEL PTCLDY    81  69  67 W6        29.96R
SWAINSBORO     FAIR      77  70  78 CALM      29.98R
VIDALIA        CLEAR     77  72  83 CALM      29.98R
EASTMAN        FAIR      79  65  61 CALM      30.00S
HAZLEHURST     FAIR      79  75  86 CALM      29.98R
ALMA           PTCLDY    75  72  90 SW3       29.99R
WAYCROSS       PTCLDY    78  76  92 CALM      29.99S
JESUP          FAIR      73  73 100 CALM      29.98S
BAXLEY         FAIR      77  77 100 CALM      29.98F
BRUNSWICK      CLEAR     79  77  94 W5        29.99S
SAINT SIMONS   CLEAR     80  75  84 W8        29.98S

$$

SCZ027-028-034-036>038-045-046-048>050-GAZ119-141-301000-
...LAKE AND SUPPLEMENTAL COASTAL OBSERVATIONS...

STATION/POSITION TIME  TEMP    WIND        PRES    WAVE   SWELL
                       AIR SEA DIR/SP/G            HT/PER HT/PER/DIR
                 (UTC) (F)     (DEG/KT/KT) (MB)    (FT/S) (FT/S/D)
WINYAH BAY       0845   82     250/  4     1013.0S
LAKE MURRAY      0800   83     230/  5/  7 1012.9F
ACE BASIN NERRS  0800   82        CALM     1014.0S
FORT PULASKI     0900   82 87  260/  6/  8 1015.1R
SAPELO ISLAND    0900   81     250/  7     1015.0S

$$

ANZ835-935-AMZ111-154-330-350-352-354-370-450-454-472-301000-
...C-MAN AND BUOY OBSERVATIONS...

STATION/POSITION TIME  TEMP    WIND        PRES    WAVE   SWELL
                       AIR SEA DIR/SP/G            HT/PER HT/PER/DIR
                 (UTC) (F)     (DEG/KT/KT) (MB)    (FT/S) (FT/S/D)
BUOY 41004       0850   86 86  220/ 17/ 21 1013.1F   4/ 5   2/160/ 8
BUOY 41008       0850   85 86  260/ 14/ 16 1014.4S   3/ 5
FOLLY BEACH CMAN 0900   85     240/  8/ 11 1013.9R
CAPERS NEARSHORE 0908   86 85  240/ 16/ 19 1013.3F
FRIPP NEARSHORE  0908   86 87  260/ 14/ 17 1013.6R


STATION/POSITION TIME  TEMP    WIND        PRES    WAVE   SWELL
                       AIR SEA DIR/SP/G            HT/PER HT/PER/DIR
                 (UTC) (F)     (DEG/KT/KT) (MB)    (FT/S) (FT/S/D)
5E ST. MARYS GA  0901      85                N/A     2/ 4
FRYING PAN BUOY  0900   85 85  240/ 17/ 23 1013.3S
BUOY 41025       0850   83 86  340/  2/  4 1013.3S   2/ 7   2/200/ 7
CAPE LOOKOUT NC  0900   82     260/  5/  6 1013.2R
BUOY 41002       0850   84 84  200/ 10/ 12 1015.9    3/ 6   3/220/ 6
BUOY 41010       0820   85 86  200/  8/ 10 1016.3F
ST AUGUSTINE FL  0900   78 84  240/  5/  5 1016.8R


$$




USA.gov is the U.S. government's official web portal to all federal, state and local government web resources and services.